Regional Weather Roundup
Issued by NWS Charleston, WV

Home | Current Version | Previous Version | Graphics & Text | Print | Product List | Glossary On
Versions: 1 2 3 4 5 6 7 8 9 10 11 12 13 14 15 16 17 18 19 20 21 22 23 24 25 26 27 28 29 30 31 32 33 34 35 36 37 38 39 40 41 42 43 44 45 46 47 48 49 50
000
ASUS41 KRLX 312210
RWRRLX
West Virginia Regional Weather Roundup
National Weather Service Charleston WV
600 PM EDT THU JUL 31 2014

Note: "fair" indicates few or no clouds below 12,000 feet with no
significant weather and/or obstructions to visibility.

WVZ003-312300-
Northern Panhandle of West Virginia

CITY           SKY/WX    TMP DP  RH WIND       PRES   REMARKS
WHEELING       MOSUNNY   76  59  55 SW5       30.10R
$$

WVZ009-312300-
Northwest West Virginia

CITY           SKY/WX    TMP DP  RH WIND       PRES   REMARKS
PARKERSBURG    SUNNY     79  60  52 VRB5      30.12S
$$

WVZ006-312300-
Western West Virginia

CITY           SKY/WX    TMP DP  RH WIND       PRES   REMARKS
HUNTINGTON     SUNNY     80  56  43 VRB5      30.08F
$$

WVZ015-312300-
West Central West Virginia

CITY           SKY/WX    TMP DP  RH WIND       PRES   REMARKS
CHARLESTON     MOSUNNY   82  56  40 W6        30.09F
$$

WVZ031-312300-
North Central West Virginia

CITY           SKY/WX    TMP DP  RH WIND       PRES   REMARKS
CLARKSBURG     SUNNY     78  56  46 MISG      30.12R
MORGANTOWN     MOSUNNY   79  59  50 SW5       30.13R
$$

WVZ035-042-045-312300-
South Central West Virginia

CITY           SKY/WX    TMP DP  RH WIND       PRES   REMARKS
BECKLEY        MOSUNNY   78  51  38 W7        30.17S
BLUEFIELD      CLOUDY    76  56  49 W6        30.19R
LEWISBURG      MOSUNNY   78  49  36 CALM      30.17S
$$

WVZ047-312300-
Northern Mountains of West Virginia

CITY           SKY/WX    TMP DP  RH WIND       PRES   REMARKS
ELKINS         SUNNY     78  54  43 VRB5      30.16R
$$

WVZ052-312300-
Eastern Panhandle of West Virginia

CITY           SKY/WX    TMP DP  RH WIND       PRES   REMARKS
MARTINSBURG    MOSUNNY   82  59  45 SE8       30.09S
PETERSBURG     MOSUNNY   81  54  39 S3        30.10R
$$


USA.gov is the U.S. government's official web portal to all federal, state and local government web resources and services.